CCA3107 ZBAA-ZHCC

Flight info

Callsign CCA3107
Flight time 1h 6m
Altitude 40100
Route RUSDO6J RUSDO W45 VAGBI B215 EKETA/K0896S1250 B208 NOPIN NOP6U
Aircraft A359/H-SDE2E3GHIJ3J4J5LM1ORWXY/LB1D1

Departure

Time 2026-04-20 15:08
Airport Beijing Capital International Airport (ZBAA)

Arrival

Time 2026-04-20 16:14
Airport Zhengzhou Xinzheng International Airport (ZHCC)
Time Latitude Longitude Altitude Speed Heading
2026-04-20 14:19 40.07813 116.59006 131 ft 0 kts 263°
2026-04-20 14:59 40.07814 116.59015 130 ft 2 kts 263°
2026-04-20 14:59 40.07816 116.59035 125 ft 2 kts 263°
2026-04-20 15:00 40.07818 116.59057 128 ft 2 kts 263°
2026-04-20 15:00 40.07820 116.59078 126 ft 2 kts 263°
2026-04-20 15:00 40.07822 116.59100 126 ft 2 kts 263°
2026-04-20 15:00 40.07824 116.59121 129 ft 2 kts 263°
2026-04-20 15:01 40.07823 116.59143 130 ft 2 kts 299°
2026-04-20 15:01 40.07815 116.59161 125 ft 2 kts 303°
2026-04-20 15:01 40.07811 116.59169 125 ft 2 kts 304°
2026-04-20 15:01 40.07788 116.59218 131 ft 7 kts 285°
2026-04-20 15:02 40.07781 116.59284 126 ft 7 kts 271°
2026-04-20 15:02 40.07771 116.59350 125 ft 7 kts 306°
2026-04-20 15:02 40.07727 116.59380 124 ft 6 kts 354°
2026-04-20 15:02 40.07721 116.59381 127 ft 0 kts 354°
2026-04-20 15:04 40.07746 116.59377 124 ft 13 kts 354°
2026-04-20 15:04 40.07903 116.59355 127 ft 24 kts 353°
2026-04-20 15:04 40.08072 116.59328 128 ft 25 kts 353°
2026-04-20 15:05 40.08246 116.59301 128 ft 25 kts 353°
2026-04-20 15:05 40.08401 116.59277 126 ft 22 kts 353°
2026-04-20 15:05 40.08562 116.59251 128 ft 21 kts 353°
2026-04-20 15:05 40.08682 116.59232 125 ft 18 kts 353°
2026-04-20 15:06 40.08817 116.59211 128 ft 21 kts 353°
2026-04-20 15:06 40.08868 116.59203 127 ft 0 kts 353°
2026-04-20 15:06 40.08897 116.59200 126 ft 9 kts 358°
2026-04-20 15:06 40.08957 116.59238 129 ft 11 kts 51°
2026-04-20 15:07 40.08974 116.59341 131 ft 13 kts 106°
2026-04-20 15:07 40.08923 116.59450 127 ft 15 kts 130°
2026-04-20 15:07 40.08824 116.59506 128 ft 17 kts 171°
2026-04-20 15:07 40.08696 116.59528 128 ft 25 kts 173°
2026-04-20 15:08 40.08279 116.59591 128 ft 97 kts 173°
2026-04-20 15:08 40.07387 116.59730 128 ft 160 kts 173°
2026-04-20 15:08 40.06218 116.59907 711 ft 169 kts 174°
2026-04-20 15:08 40.05063 116.60105 1573 ft 173 kts 176°
2026-04-20 15:09 40.03764 116.60321 1997 ft 202 kts 177°
2026-04-20 15:09 40.02336 116.60543 2487 ft 211 kts 176°
2026-04-20 15:09 40.00828 116.60778 2813 ft 229 kts 176°
2026-04-20 15:09 39.99162 116.61036 3119 ft 251 kts 176°
2026-04-20 15:10 39.97398 116.61312 3676 ft 259 kts 176°
2026-04-20 15:10 39.95577 116.61600 4288 ft 266 kts 176°
2026-04-20 15:10 39.93713 116.61894 4884 ft 273 kts 176°
2026-04-20 15:10 39.91809 116.62193 5513 ft 278 kts 175°
2026-04-20 15:11 39.89874 116.62496 6180 ft 281 kts 175°
2026-04-20 15:11 39.87922 116.62801 6829 ft 285 kts 175°
2026-04-20 15:11 39.85934 116.63111 7462 ft 289 kts 175°
2026-04-20 15:11 39.83920 116.63425 8094 ft 294 kts 175°
2026-04-20 15:12 39.81868 116.63748 8754 ft 298 kts 175°
2026-04-20 15:12 39.79893 116.64048 9411 ft 302 kts 175°
2026-04-20 15:12 39.77786 116.64366 10063 ft 307 kts 175°
2026-04-20 15:12 39.75630 116.64691 10462 ft 320 kts 175°
2026-04-20 15:13 39.73355 116.65034 10753 ft 337 kts 175°
2026-04-20 15:13 39.71007 116.65380 11032 ft 351 kts 176°
2026-04-20 15:13 39.68524 116.65274 11327 ft 358 kts 195°
2026-04-20 15:13 39.66275 116.63962 11837 ft 354 kts 219°
2026-04-20 15:14 39.64649 116.61634 12415 ft 349 kts 243°
2026-04-20 15:14 39.63886 116.58690 12975 ft 345 kts 265°
2026-04-20 15:14 39.64078 116.55667 13522 ft 345 kts 285°
2026-04-20 15:14 39.64707 116.52645 14028 ft 349 kts 279°
2026-04-20 15:15 39.64777 116.49492 14556 ft 351 kts 269°
2026-04-20 15:15 39.64608 116.46328 15133 ft 352 kts 267°
2026-04-20 15:15 39.64400 116.43161 15677 ft 353 kts 267°
2026-04-20 15:15 39.64189 116.39985 16249 ft 354 kts 267°
2026-04-20 15:16 39.63979 116.36811 16831 ft 354 kts 267°
2026-04-20 15:16 39.63839 116.34691 17197 ft 355 kts 267°
2026-04-20 15:16 39.63628 116.31497 17743 ft 356 kts 268°
2026-04-20 15:16 39.63387 116.28295 18262 ft 358 kts 265°
2026-04-20 15:17 39.62802 116.25143 18756 ft 363 kts 254°
2026-04-20 15:17 39.61635 116.22203 19226 ft 372 kts 240°
2026-04-20 15:17 39.59871 116.19677 19635 ft 382 kts 230°
2026-04-20 15:17 39.57847 116.17423 20033 ft 387 kts 225°
2026-04-20 15:18 39.55692 116.15315 20495 ft 389 kts 223°
2026-04-20 15:18 39.53482 116.13277 20923 ft 391 kts 223°
2026-04-20 15:18 39.51238 116.11230 21333 ft 393 kts 223°
2026-04-20 15:18 39.49004 116.09170 21734 ft 394 kts 224°
2026-04-20 15:19 39.46781 116.07083 22129 ft 395 kts 225°
2026-04-20 15:19 39.44562 116.04970 22526 ft 396 kts 226°
2026-04-20 15:19 39.42345 116.02836 22902 ft 398 kts 226°
2026-04-20 15:19 39.40135 116.00698 23287 ft 399 kts 226°
2026-04-20 15:20 39.37928 115.98560 23647 ft 400 kts 227°
2026-04-20 15:20 39.35699 115.96404 23935 ft 402 kts 227°
2026-04-20 15:20 39.33449 115.94228 24209 ft 404 kts 227°
2026-04-20 15:20 39.31199 115.92056 24506 ft 405 kts 227°
2026-04-20 15:21 39.28933 115.89875 24809 ft 407 kts 227°
2026-04-20 15:21 39.26659 115.87688 25096 ft 408 kts 227°
2026-04-20 15:21 39.24377 115.85496 25403 ft 409 kts 228°
2026-04-20 15:21 39.22088 115.83300 25710 ft 411 kts 228°
2026-04-20 15:22 39.19785 115.81091 25997 ft 412 kts 228°
2026-04-20 15:22 39.17483 115.78884 26285 ft 414 kts 228°
2026-04-20 15:22 39.15158 115.76658 26596 ft 415 kts 228°
2026-04-20 15:22 39.12836 115.74436 26916 ft 417 kts 228°
2026-04-20 15:23 39.10504 115.72207 27238 ft 418 kts 228°
2026-04-20 15:23 39.08190 115.69997 27564 ft 420 kts 228°
2026-04-20 15:23 39.05842 115.67756 27909 ft 421 kts 228°
2026-04-20 15:23 39.03480 115.65504 28258 ft 423 kts 228°
2026-04-20 15:24 39.01109 115.63244 28614 ft 425 kts 228°
2026-04-20 15:24 38.98730 115.60980 28950 ft 426 kts 228°
2026-04-20 15:24 38.96338 115.58705 29321 ft 428 kts 228°
2026-04-20 15:24 38.93937 115.56425 29685 ft 429 kts 228°
2026-04-20 15:25 38.91527 115.54136 29985 ft 433 kts 228°
2026-04-20 15:25 38.89095 115.51822 30150 ft 438 kts 228°
2026-04-20 15:25 38.86628 115.49478 30298 ft 444 kts 228°
2026-04-20 15:25 38.84133 115.47112 30425 ft 449 kts 227°
2026-04-20 15:26 38.81606 115.44720 30547 ft 454 kts 227°
2026-04-20 15:26 38.79053 115.42310 30767 ft 455 kts 227°
2026-04-20 15:26 38.76519 115.39932 31403 ft 447 kts 227°
2026-04-20 15:26 38.74014 115.37590 31944 ft 442 kts 227°
2026-04-20 15:27 38.71540 115.35271 32156 ft 439 kts 227°
2026-04-20 15:27 38.66631 115.30652 32194 ft 437 kts 227°
2026-04-20 15:28 38.61762 115.26064 32192 ft 438 kts 226°
2026-04-20 15:28 38.56849 115.21448 32189 ft 438 kts 226°
2026-04-20 15:29 38.51918 115.16825 32193 ft 444 kts 226°
2026-04-20 15:29 38.46850 115.12068 32190 ft 458 kts 225°
2026-04-20 15:30 38.41665 115.07228 32192 ft 465 kts 225°
2026-04-20 15:30 38.36454 115.02388 32196 ft 466 kts 225°
2026-04-20 15:31 38.31212 114.97526 32197 ft 466 kts 225°
2026-04-20 15:31 38.25971 114.92666 32194 ft 466 kts 224°
2026-04-20 15:32 38.20733 114.87815 32200 ft 465 kts 224°
2026-04-20 15:32 38.15502 114.82976 32197 ft 465 kts 224°
2026-04-20 15:33 38.10264 114.78140 32197 ft 465 kts 224°
2026-04-20 15:33 38.05021 114.73310 32193 ft 466 kts 224°
2026-04-20 15:34 37.99772 114.68483 32198 ft 466 kts 224°
2026-04-20 15:34 37.94551 114.63690 32197 ft 466 kts 223°
2026-04-20 15:35 37.89295 114.58873 32200 ft 467 kts 223°
2026-04-20 15:35 37.84029 114.54056 32197 ft 467 kts 223°
2026-04-20 15:36 37.78744 114.49231 32201 ft 468 kts 223°
2026-04-20 15:36 37.73462 114.44416 32207 ft 469 kts 223°
2026-04-20 15:37 37.68160 114.39593 32210 ft 469 kts 223°
2026-04-20 15:37 37.62891 114.34809 32218 ft 470 kts 223°
2026-04-20 15:38 37.57571 114.29985 32220 ft 471 kts 223°
2026-04-20 15:38 37.52240 114.25159 32223 ft 471 kts 223°
2026-04-20 15:39 37.46915 114.20351 32214 ft 465 kts 223°
2026-04-20 15:39 37.44315 114.18015 31750 ft 457 kts 223°
2026-04-20 15:39 37.41742 114.15691 31006 ft 454 kts 222°
2026-04-20 15:39 37.39175 114.13368 30087 ft 455 kts 222°
2026-04-20 15:40 37.36602 114.11045 29191 ft 454 kts 222°
2026-04-20 15:40 37.34040 114.08745 28443 ft 450 kts 222°
2026-04-20 15:40 37.31494 114.06467 27704 ft 447 kts 222°
2026-04-20 15:40 37.28975 114.04215 27010 ft 444 kts 222°
2026-04-20 15:41 37.26463 114.01969 26317 ft 441 kts 222°
2026-04-20 15:41 37.23975 113.99744 25648 ft 438 kts 222°
2026-04-20 15:41 37.21500 113.97530 24991 ft 435 kts 222°
2026-04-20 15:41 37.19041 113.95332 24355 ft 432 kts 222°
2026-04-20 15:42 37.16639 113.93187 23946 ft 429 kts 222°
2026-04-20 15:42 37.14208 113.91011 23789 ft 430 kts 222°
2026-04-20 15:42 37.11769 113.88829 23755 ft 431 kts 221°
2026-04-20 15:42 37.09316 113.86641 23777 ft 431 kts 221°
2026-04-20 15:43 37.06870 113.84461 23770 ft 431 kts 221°
2026-04-20 15:43 37.04424 113.82283 23754 ft 432 kts 221°
2026-04-20 15:43 37.01974 113.80104 23754 ft 432 kts 221°
2026-04-20 15:43 36.99517 113.77922 23766 ft 433 kts 221°
2026-04-20 15:44 36.97054 113.75737 23768 ft 433 kts 221°
2026-04-20 15:44 36.94597 113.73557 23775 ft 434 kts 221°
2026-04-20 15:44 36.92133 113.71372 23762 ft 434 kts 221°
2026-04-20 15:44 36.89671 113.69191 23772 ft 434 kts 221°
2026-04-20 15:45 36.87210 113.67011 23772 ft 434 kts 221°
2026-04-20 15:45 36.84749 113.64833 23774 ft 434 kts 221°
2026-04-20 15:45 36.82312 113.62678 23769 ft 434 kts 221°
2026-04-20 15:45 36.79846 113.60502 23773 ft 434 kts 221°
2026-04-20 15:46 36.77382 113.58329 23777 ft 435 kts 221°
2026-04-20 15:46 36.74910 113.56149 23777 ft 435 kts 221°
2026-04-20 15:46 36.72428 113.53963 23784 ft 435 kts 221°
2026-04-20 15:46 36.69958 113.51788 23774 ft 434 kts 220°
2026-04-20 15:47 36.67489 113.49616 23776 ft 433 kts 220°
2026-04-20 15:47 36.65034 113.47456 23776 ft 432 kts 220°
2026-04-20 15:47 36.62586 113.45304 23776 ft 431 kts 220°
2026-04-20 15:47 36.60131 113.43151 23775 ft 430 kts 220°
2026-04-20 15:48 36.57692 113.41015 23777 ft 430 kts 220°
2026-04-20 15:48 36.55236 113.38870 23779 ft 429 kts 220°
2026-04-20 15:48 36.52791 113.36735 23781 ft 429 kts 220°
2026-04-20 15:48 36.50323 113.34577 23777 ft 440 kts 220°
2026-04-20 15:49 36.47825 113.32390 23777 ft 447 kts 220°
2026-04-20 15:49 36.45242 113.30132 23778 ft 448 kts 219°
2026-04-20 15:49 36.42727 113.27936 23778 ft 448 kts 219°
2026-04-20 15:49 36.40149 113.25687 23781 ft 448 kts 219°
2026-04-20 15:50 36.37628 113.23493 23779 ft 448 kts 219°
2026-04-20 15:50 36.35086 113.21286 23674 ft 441 kts 219°
2026-04-20 15:50 36.32544 113.19113 22892 ft 437 kts 218°
2026-04-20 15:50 36.29887 113.17229 21850 ft 445 kts 210°
2026-04-20 15:51 36.27005 113.15790 21218 ft 449 kts 202°
2026-04-20 15:51 36.23989 113.14900 20941 ft 454 kts 193°
2026-04-20 15:51 36.20822 113.14590 20890 ft 460 kts 184°
2026-04-20 15:51 36.17616 113.14920 20887 ft 464 kts 175°
2026-04-20 15:52 36.14454 113.15783 20888 ft 467 kts 168°
2026-04-20 15:52 36.11351 113.16987 20890 ft 469 kts 165°
2026-04-20 15:52 36.08277 113.18377 20888 ft 470 kts 163°
2026-04-20 15:53 36.02176 113.21311 20893 ft 470 kts 162°
2026-04-20 15:53 35.99125 113.22759 20892 ft 470 kts 163°
2026-04-20 15:53 35.96067 113.24177 20890 ft 469 kts 163°
2026-04-20 15:53 35.93003 113.25570 20894 ft 469 kts 163°
2026-04-20 15:54 35.89933 113.26949 20896 ft 469 kts 164°
2026-04-20 15:54 35.86888 113.28309 20691 ft 460 kts 164°
2026-04-20 15:54 35.83883 113.29648 19861 ft 458 kts 164°
2026-04-20 15:54 35.80875 113.30985 18952 ft 461 kts 163°
2026-04-20 15:55 35.77898 113.32306 18213 ft 457 kts 163°
2026-04-20 15:55 35.74924 113.33631 17492 ft 452 kts 163°
2026-04-20 15:55 35.71999 113.34936 16827 ft 445 kts 162°
2026-04-20 15:55 35.69106 113.36227 16131 ft 439 kts 162°
2026-04-20 15:56 35.66251 113.37500 15453 ft 433 kts 162°
2026-04-20 15:56 35.63432 113.38755 14778 ft 428 kts 162°
2026-04-20 15:56 35.60662 113.39986 14263 ft 420 kts 161°
2026-04-20 15:56 35.57932 113.41205 14039 ft 417 kts 161°
2026-04-20 15:57 35.55191 113.42423 13988 ft 418 kts 161°
2026-04-20 15:57 35.52463 113.43634 13985 ft 418 kts 161°
2026-04-20 15:57 35.49727 113.44845 13986 ft 418 kts 161°
2026-04-20 15:57 35.46989 113.46060 13980 ft 417 kts 161°
2026-04-20 15:58 35.44258 113.47269 13980 ft 417 kts 161°
2026-04-20 15:58 35.41528 113.48498 13977 ft 417 kts 161°
2026-04-20 15:58 35.38802 113.49725 13971 ft 417 kts 161°
2026-04-20 15:58 35.36106 113.50937 13977 ft 417 kts 161°
2026-04-20 15:59 35.33341 113.52177 13972 ft 417 kts 161°
2026-04-20 15:59 35.30654 113.53382 13973 ft 417 kts 161°
2026-04-20 15:59 35.27934 113.54601 13975 ft 417 kts 161°
2026-04-20 15:59 35.25160 113.55844 13971 ft 417 kts 161°
2026-04-20 16:00 35.22432 113.57064 13966 ft 417 kts 161°
2026-04-20 16:00 35.19720 113.58276 13970 ft 417 kts 161°
2026-04-20 16:00 35.16980 113.59501 13971 ft 417 kts 161°
2026-04-20 16:00 35.14258 113.60717 13965 ft 417 kts 161°
2026-04-20 16:01 35.11559 113.61922 13971 ft 417 kts 161°
2026-04-20 16:01 35.08763 113.63027 13972 ft 416 kts 168°
2026-04-20 16:01 35.05946 113.63475 13971 ft 413 kts 181°
2026-04-20 16:01 35.03134 113.63146 13562 ft 400 kts 191°
2026-04-20 16:02 35.01303 113.62712 13166 ft 390 kts 193°
2026-04-20 16:02 34.97980 113.61819 12456 ft 350 kts 194°
2026-04-20 16:02 34.95681 113.61186 11998 ft 325 kts 194°
2026-04-20 16:02 34.94230 113.60784 11719 ft 310 kts 194°
2026-04-20 16:03 34.92203 113.60223 11166 ft 296 kts 193°
2026-04-20 16:03 34.90220 113.59678 10446 ft 290 kts 193°
2026-04-20 16:03 34.88262 113.59144 9670 ft 286 kts 192°
2026-04-20 16:03 34.86446 113.58652 8885 ft 283 kts 192°
2026-04-20 16:04 34.84531 113.58135 8055 ft 282 kts 191°
2026-04-20 16:04 34.82619 113.57622 7243 ft 280 kts 191°
2026-04-20 16:04 34.80719 113.57112 6488 ft 278 kts 191°
2026-04-20 16:04 34.78881 113.56621 6110 ft 260 kts 191°
2026-04-20 16:05 34.77178 113.56165 5858 ft 241 kts 191°
2026-04-20 16:05 34.75580 113.55738 5491 ft 230 kts 191°
2026-04-20 16:05 34.74031 113.55328 5045 ft 226 kts 190°
2026-04-20 16:05 34.72517 113.54860 4630 ft 220 kts 195°
2026-04-20 16:06 34.71135 113.54275 4495 ft 203 kts 199°
2026-04-20 16:06 34.69856 113.53673 4400 ft 190 kts 199°
2026-04-20 16:06 34.68663 113.53099 4296 ft 179 kts 200°
2026-04-20 16:06 34.67549 113.52567 4174 ft 170 kts 198°
2026-04-20 16:07 34.66416 113.52294 3978 ft 163 kts 179°
2026-04-20 16:07 34.65338 113.52579 3899 ft 159 kts 152°
2026-04-20 16:07 34.64575 113.53526 3899 ft 157 kts 123°
2026-04-20 16:07 34.64044 113.54677 3908 ft 156 kts 115°
2026-04-20 16:08 34.63581 113.55873 3903 ft 156 kts 113°
2026-04-20 16:08 34.63135 113.57073 3907 ft 156 kts 113°
2026-04-20 16:08 34.62703 113.58270 3908 ft 156 kts 112°
2026-04-20 16:08 34.62287 113.59486 3912 ft 156 kts 111°
2026-04-20 16:09 34.61877 113.60698 3903 ft 155 kts 111°
2026-04-20 16:09 34.61464 113.61909 3905 ft 155 kts 111°
2026-04-20 16:09 34.61052 113.63117 3911 ft 156 kts 111°
2026-04-20 16:09 34.60639 113.64331 3907 ft 156 kts 111°
2026-04-20 16:10 34.60230 113.65529 3792 ft 151 kts 111°
2026-04-20 16:10 34.59838 113.66686 3592 ft 146 kts 111°
2026-04-20 16:10 34.59453 113.67824 3397 ft 145 kts 111°
2026-04-20 16:10 34.59080 113.68925 3202 ft 139 kts 111°
2026-04-20 16:11 34.58715 113.70005 3003 ft 138 kts 111°
2026-04-20 16:11 34.58353 113.71077 2828 ft 137 kts 112°
2026-04-20 16:11 34.57991 113.72145 2641 ft 137 kts 112°
2026-04-20 16:11 34.57630 113.73212 2461 ft 137 kts 112°
2026-04-20 16:12 34.57267 113.74285 2270 ft 137 kts 112°
2026-04-20 16:12 34.56906 113.75350 2095 ft 136 kts 112°
2026-04-20 16:12 34.56546 113.76415 1905 ft 136 kts 113°
2026-04-20 16:12 34.56186 113.77475 1723 ft 135 kts 113°
2026-04-20 16:13 34.55828 113.78531 1517 ft 135 kts 113°
2026-04-20 16:13 34.55469 113.79584 1349 ft 135 kts 113°
2026-04-20 16:13 34.55109 113.80621 1170 ft 135 kts 113°
2026-04-20 16:13 34.54756 113.81674 953 ft 135 kts 112°
2026-04-20 16:14 34.54408 113.82725 751 ft 134 kts 112°
2026-04-20 16:14 34.54056 113.83772 582 ft 134 kts 112°
2026-04-20 16:14 34.53704 113.84800 508 ft 115 kts 112°
2026-04-20 16:14 34.53497 113.85406 506 ft 40 kts 112°
2026-04-20 16:15 34.53443 113.85564 504 ft 26 kts 112°
2026-04-20 16:15 34.53344 113.85849 506 ft 35 kts 116°
2026-04-20 16:15 34.53268 113.85939 506 ft 14 kts 144°
2026-04-20 16:15 34.53179 113.86015 508 ft 15 kts 150°
2026-04-20 16:16 34.53120 113.85992 508 ft 8 kts 252°
2026-04-20 16:16 34.53130 113.85916 508 ft 11 kts 291°
2026-04-20 16:16 34.53164 113.85819 508 ft 14 kts 292°
2026-04-20 16:16 34.53205 113.85698 508 ft 17 kts 291°
2026-04-20 16:17 34.53163 113.85592 508 ft 16 kts 206°
2026-04-20 16:17 34.53053 113.85529 508 ft 19 kts 203°
2026-04-20 16:17 34.52932 113.85465 508 ft 15 kts 204°
2026-04-20 16:17 34.52918 113.85457 508 ft 0 kts 204°
2026-04-20 16:18 34.52899 113.85433 508 ft 7 kts 242°
2026-04-20 16:18 34.52904 113.85382 508 ft 8 kts 290°
2026-04-20 16:19 34.52906 113.85374 508 ft 0 kts 290°
2026-04-20 16:19 34.52911 113.85357 508 ft 0 kts 290°